Marathon, FL

2:48 AM EDT on April 29, 2017 (GMT -0400)
Florida Keys Marathon

Weather History for KMTH - March, 2011

Change the Weather History Date:

Tuesday, March 29, 2011

  Actual Average Record
Temperature  
Mean Temperature 78 °F 76 °F  
Max Temperature 85 °F 81 °F 87 °F (1997)
Min Temperature 71 °F 70 °F 62 °F (2015)
Degree Days  
Heating Degree Days 0 0  
Month to date heating degree days 1 0  
Since 1 July heating degree days 177 75  
Cooling Degree Days 13 11  
Month to date cooling degree days 302 261  
Year to date cooling degree days 675 643  
Growing Degree Days 26 (Base 50)    
Moisture  
Dew Point 71 °F    
Average Humidity 79    
Maximum Humidity 88    
Minimum Humidity 69    
Precipitation  
Precipitation 0.00 in 0.09 in 0.12 in (2014)
Month to date precipitation 0.95 2.20  
Year to date precipitation 3.37 6.02  
Snow  
Snow 0.00 in - - ()
Month to date snowfall 0.0  
Since 1 July snowfall 0.0  
Snow Depth 0.00 in    
Sea Level Pressure  
Sea Level Pressure 30.01 in    
Wind  
Wind Speed 10 mph (East)    
Max Wind Speed 26 mph    
Max Gust Speed 35 mph    
Visibility 10 miles    
Events Rain    
T = Trace of Precipitation, MM = Missing Value Source: NWS Daily Summary

Daily Weather History Graph

Daily Weather History Graph

Search for Another Location

Airport or City:

Trip Planner

Search our weather history database for the weather conditions in past years. The results will help you decide how hot, cold, wet, or windy it might be!

Date:

Astronomy

Mar. 29, 2011 Rise Set
Actual Time 7:19 AM EDT 7:39 PM EDT
Civil Twilight 6:56 AM EDT 8:01 PM EDT
Nautical Twilight 6:29 AM EDT 8:28 PM EDT
Astronomical Twilight 6:02 AM EDT 8:55 PM EDT
Moon 4:14 AM EDT 3:44 PM EDT
Length of Visible Light 13h 05m
Length of Day
12h 19m
Waning Crescent, 21% of the Moon is Illuminated
Mar 29
Waning Crescent
Apr 3
New
Apr 11
First Quarter
Apr 17
Full
Apr 24
Last Quarter

Hourly Weather History & Observations

Time (EDT) Temp. Heat Index Dew Point Humidity Pressure Visibility Wind Dir Wind Speed Gust Speed Precip Events Conditions
12:09 AM 69.8 °F - 69.8 °F 100% 30.04 in 10.0 mi NNE 25.3 mph 32.2 mph 0.19 in Rain Light Rain
12:24 AM 69.8 °F - 69.8 °F 100% 30.03 in 10.0 mi NNE 24.2 mph 33.4 mph 0.19 in   Overcast
12:36 AM 69.8 °F - 69.8 °F 100% 30.04 in 10.0 mi NE 24.2 mph 32.2 mph 0.19 in   Overcast
12:53 AM 71.1 °F - 68.0 °F 90% 30.04 in 10.0 mi NE 24.2 mph 33.4 mph 0.19 in Rain Light Rain
2:22 AM 73.4 °F - 69.8 °F 88% 30.01 in 10.0 mi NE 24.2 mph 29.9 mph N/A   Overcast
2:33 AM 73.4 °F - 69.8 °F 88% 30.01 in 10.0 mi NE 20.7 mph 26.5 mph N/A   Overcast
2:53 AM 73.0 °F - 69.1 °F 87% 30.00 in 10.0 mi ENE 16.1 mph 24.2 mph N/A   Mostly Cloudy
5:43 AM 73.4 °F - 69.8 °F 88% 29.98 in 10.0 mi East 10.4 mph 18.4 mph N/A   Scattered Clouds
5:53 AM 73.9 °F - 69.1 °F 85% 29.97 in 10.0 mi East 10.4 mph 18.4 mph N/A   Partly Cloudy
11:53 AM 82.0 °F 87.4 °F 73.0 °F 74% 30.04 in 10.0 mi SE 10.4 mph 18.4 mph N/A   Unknown
12:53 PM 82.9 °F 89.4 °F 73.9 °F 74% 30.03 in 10.0 mi SE 10.4 mph - N/A   Clear
1:53 PM 84.0 °F 91.2 °F 73.9 °F 72% 30.01 in 10.0 mi SE 9.2 mph - N/A   Clear
2:53 PM 82.9 °F 89.4 °F 73.9 °F 74% 29.99 in 10.0 mi SSE 9.2 mph - N/A   Clear
3:53 PM 84.0 °F 91.2 °F 73.9 °F 72% 29.97 in 10.0 mi SSE 5.8 mph - N/A   Clear
4:53 PM 82.0 °F 86.7 °F 72.0 °F 71% 29.97 in 10.0 mi SE 5.8 mph - N/A   Clear
5:53 PM 81.0 °F 84.9 °F 71.1 °F 72% 29.98 in 10.0 mi Variable 5.8 mph - N/A   Clear
6:53 PM 80.1 °F 83.6 °F 71.1 °F 74% 29.98 in 10.0 mi East 6.9 mph - N/A   Clear
7:53 PM 79.0 °F - 72.0 °F 79% 29.99 in 10.0 mi East 9.2 mph - N/A   Scattered Clouds
8:53 PM 79.0 °F - 72.0 °F 79% 30.02 in 10.0 mi ENE 9.2 mph - N/A   Partly Cloudy
9:53 PM 78.1 °F - 71.1 °F 79% 30.03 in 10.0 mi ENE 8.1 mph - N/A   Clear
10:53 PM 78.1 °F - 72.0 °F 81% 30.04 in 10.0 mi East 5.8 mph - N/A   Clear
11:53 PM 77.0 °F - 73.0 °F 88% 30.04 in 10.0 mi SSE 6.9 mph - N/A   Clear